Weather in Mugreyevskiy

Russia / Ivanovo Oblast     56°35′58″N   42°20′57″E
temp.,
°C
wind,
m/s
gust,
m/s
humid.,
%
clouds,
%
prec.,
mm/h
press.,
hPa
HPBL,
m
2 july, sat
sat200:00+11nnw35815 0.0 102181
03:00+9n37843 0.0 1021123
06:00+13n3767100 0.0 1021194
09:00+19n46465 0.0 1020859
12:00+23n46365 0.0 10191930
15:00+25n463613 0.0 10172096
18:00+22nnw475093 0.0 1016787
21:00+16nw227410 0.0 101626
3 july, sun
sun300:00+15nw117990 0.1 101613
03:00+13nne11890 0.2 101511
06:00+16nne24800 0.0 1015138
09:00+22nne35550 0.0 1015971
12:00+25nne46453 0.0 10151819
15:00+26nne45400 0.0 10151941
18:00+24nne35470 0.0 10151519
21:00+18nne22672 0.0 101615
4 july, mon
mon400:00+15ne117849 0.0 101611
03:00+14w118446 0.0 101711
06:00+18nw237117 0.0 1017122
09:00+24n23486 0.0 1017792
12:00+27n34376 0.0 10162480
15:00+28n343346 0.0 10162792
18:00+27nne134474 0.0 10151156
21:00+22nne115991 0.0 101611
5 july, tue
tue500:00+20se116742 0.0 101711
03:00+17ssw117994 0.0 101711
06:00+19sse0075100 0.0 101728
09:00+25wsw1153100 0.0 1017526
12:00+29sw223599 0.0 10172370
15:00+30w2232100 0.0 10162586
18:00+25se1156100 0.0 101520
21:00+22sse1165100 0.0 101511
6 july, wed
wed600:00+19ene1180100 0.7 101622
03:00+18ssw228978 1.2 101528
06:00+20w13845 0.0 1016134
09:00+26wsw245611 0.0 1015758
12:00+30wsw353973 0.0 10142579
15:00+31wsw2533100 0.0 10132516
18:00+25sse236131 0.0 101345
21:00+22w277699 0.0 1013173